Location: Courcelles
(49.2596°N, 1.7419°E)
Time: 00:26:14
(UTC+00:00)

Cosmos 44 Rocket - Pass Details

Date: 17 November 2025
Orbit: 637 x 741 km, 65.1° (Epoch: 05 December)

Event Time Altitude Azimuth Distance (km) Brightness Sun altitude
Rises 17:37:15 0° 204° (SSW) 2,983 7.1 -14.3°
Reaches altitude 10° 17:39:33 10° 200° (SSW) 2,090 6.2 -14.6°
Maximum altitude 17:44:11 56° 122° (ESE) 811 3.4 -15.4°
Enters shadow 17:47:03 23° 53° (NE) 1,449 4.4 -15.8°
